TimeEDT,TemperatureF,Dew PointF,Humidity,Sea Level PressureIn,VisibilityMPH,Wind Direction,Wind SpeedMPH,Gust SpeedMPH,PrecipitationIn,Events,Conditions,WindDirDegrees,DateUTC
12:15 AM,64.4,55.4,73,29.85,10.0,SSE,10.4,-,N/A,,Scattered Clouds,160,2013-03-12 04:15:00
12:35 AM,64.4,55.4,73,29.85,10.0,South,11.5,-,N/A,,Mostly Cloudy,170,2013-03-12 04:35:00
12:55 AM,64.4,55.4,73,29.86,10.0,South,9.2,-,N/A,Rain,Light Rain,180,2013-03-12 04:55:00
1:15 AM,64.4,57.2,77,29.85,10.0,South,9.2,-,N/A,Rain,Light Rain,170,2013-03-12 05:15:00
1:35 AM,64.4,57.2,77,29.85,10.0,South,6.9,-,N/A,,Overcast,190,2013-03-12 05:35:00
1:55 AM,64.4,57.2,77,29.85,10.0,South,5.8,-,N/A,Rain,Light Rain,180,2013-03-12 05:55:00
2:15 AM,62.6,57.2,82,29.85,10.0,South,5.8,-,N/A,Rain,Light Rain,190,2013-03-12 06:15:00
2:35 AM,62.6,57.2,82,29.86,10.0,SSW,5.8,-,N/A,Rain,Rain,210,2013-03-12 06:35:00
2:55 AM,62.6,59.0,88,29.85,7.0,South,3.5,-,N/A,Rain,Rain,180,2013-03-12 06:55:00
3:15 AM,62.6,62.6,100,29.85,7.0,SSW,3.5,-,N/A,Rain,Rain,200,2013-03-12 07:15:00
3:55 AM,60.8,60.8,100,29.83,7.0,Calm,Calm,-,N/A,Rain,Light Rain,0,2013-03-12 07:55:00
4:15 AM,60.8,60.8,100,29.83,5.0,SSE,4.6,-,N/A,Rain,Light Rain,160,2013-03-12 08:15:00
4:55 AM,60.8,60.8,100,29.83,7.0,SSE,6.9,-,N/A,Rain,Rain,160,2013-03-12 08:55:00
5:15 AM,60.8,60.8,100,29.82,10.0,South,5.8,-,N/A,Rain,Light Rain,170,2013-03-12 09:15:00
5:35 AM,62.6,62.6,100,29.83,10.0,South,5.8,-,N/A,,Light Drizzle,170,2013-03-12 09:35:00
5:55 AM,62.6,62.6,100,29.82,10.0,SSE,6.9,-,N/A,,Overcast,160,2013-03-12 09:55:00
6:15 AM,62.6,62.6,100,29.82,10.0,South,5.8,-,N/A,,Overcast,170,2013-03-12 10:15:00
6:55 AM,62.6,62.6,100,29.83,10.0,South,6.9,-,N/A,Rain,Light Rain,180,2013-03-12 10:55:00
7:15 AM,62.6,62.6,100,29.83,5.0,South,9.2,-,N/A,Rain,Heavy Rain,190,2013-03-12 11:15:00
7:35 AM,62.6,62.6,100,29.84,5.0,SSW,9.2,-,N/A,,Light Drizzle,200,2013-03-12 11:35:00
7:55 AM,62.6,62.6,100,29.84,4.0,SSW,8.1,-,N/A,Rain,Light Rain,200,2013-03-12 11:55:00
8:15 AM,62.6,62.6,100,29.86,1.5,SSW,8.1,-,N/A,,Drizzle,210,2013-03-12 12:15:00
8:35 AM,62.6,62.6,100,29.86,1.8,SSW,9.2,-,N/A,,Drizzle,210,2013-03-12 12:35:00
8:55 AM,62.6,62.6,100,29.87,2.5,WSW,9.2,-,N/A,,Overcast,240,2013-03-12 12:55:00
9:15 AM,62.6,62.6,100,29.87,1.8,West,8.1,-,N/A,,Drizzle,260,2013-03-12 13:15:00
9:35 AM,60.8,60.8,100,29.88,4.0,WNW,9.2,-,N/A,,Light Drizzle,290,2013-03-12 13:35:00
9:55 AM,60.8,60.8,100,29.89,3.0,NW,8.1,-,N/A,,Light Drizzle,320,2013-03-12 13:55:00
10:15 AM,59.0,59.0,100,29.90,10.0,WNW,12.7,18.4,N/A,,Overcast,290,2013-03-12 14:15:00
10:35 AM,59.0,57.2,94,29.91,10.0,West,12.7,-,N/A,,Overcast,280,2013-03-12 14:35:00
10:55 AM,59.0,59.0,100,29.91,10.0,WNW,12.7,-,N/A,,Overcast,290,2013-03-12 14:55:00
11:15 AM,59.0,55.4,88,29.92,10.0,NW,10.4,18.4,N/A,,Mostly Cloudy,320,2013-03-12 15:15:00
11:35 AM,57.2,55.4,94,29.92,10.0,WNW,9.2,-,N/A,,Overcast,300,2013-03-12 15:35:00
11:55 AM,55.4,55.4,100,29.92,10.0,WNW,6.9,-,N/A,,Overcast,290,2013-03-12 15:55:00
12:15 PM,59.0,53.6,82,29.92,10.0,West,8.1,-,N/A,,Scattered Clouds,260,2013-03-12 16:15:00
12:35 PM,60.8,50.0,68,29.92,10.0,WNW,9.2,-,N/A,,Clear,290,2013-03-12 16:35:00
12:55 PM,62.6,44.6,52,29.91,10.0,WNW,9.2,-,N/A,,Clear,300,2013-03-12 16:55:00
1:15 PM,62.6,44.6,52,29.91,10.0,WNW,10.4,-,N/A,,Clear,300,2013-03-12 17:15:00
1:35 PM,64.4,44.6,49,29.90,10.0,West,3.5,-,N/A,,Clear,260,2013-03-12 17:35:00
1:55 PM,64.4,42.8,45,29.89,10.0,West,9.2,-,N/A,,Clear,270,2013-03-12 17:55:00
2:15 PM,68.0,42.8,40,29.88,10.0,SW,6.9,-,N/A,,Clear,230,2013-03-12 18:15:00
2:35 PM,68.0,42.8,40,29.88,10.0,West,10.4,-,N/A,,Clear,270,2013-03-12 18:35:00
2:55 PM,69.8,44.6,40,29.88,10.0,West,11.5,-,N/A,,Clear,280,2013-03-12 18:55:00
3:15 PM,69.8,42.8,38,29.87,10.0,West,11.5,16.1,N/A,,Clear,270,2013-03-12 19:15:00
3:35 PM,69.8,42.8,38,29.88,10.0,West,11.5,21.9,N/A,,Clear,270,2013-03-12 19:35:00
3:55 PM,69.8,42.8,38,29.88,10.0,WNW,16.1,19.6,N/A,,Clear,290,2013-03-12 19:55:00
4:15 PM,69.8,42.8,38,29.88,10.0,NW,12.7,-,N/A,,Clear,310,2013-03-12 20:15:00
4:35 PM,69.8,41.0,35,29.88,10.0,NW,12.7,16.1,N/A,,Clear,320,2013-03-12 20:35:00
4:55 PM,69.8,41.0,35,29.88,10.0,West,15.0,18.4,N/A,,Clear,280,2013-03-12 20:55:00
5:15 PM,69.8,41.0,35,29.88,10.0,WNW,9.2,16.1,N/A,,Clear,300,2013-03-12 21:15:00
5:35 PM,69.8,41.0,35,29.89,10.0,WNW,10.4,16.1,N/A,,Clear,300,2013-03-12 21:35:00
5:55 PM,69.8,41.0,35,29.90,10.0,WNW,15.0,-,N/A,,Clear,290,2013-03-12 21:55:00
6:15 PM,68.0,39.2,35,29.90,10.0,West,10.4,-,N/A,,Clear,280,2013-03-12 22:15:00
6:35 PM,68.0,41.0,37,29.90,10.0,West,9.2,-,N/A,,Clear,270,2013-03-12 22:35:00
6:55 PM,68.0,41.0,37,29.91,10.0,West,6.9,-,N/A,,Clear,280,2013-03-12 22:55:00
7:15 PM,64.4,39.2,40,29.92,10.0,WNW,8.1,-,N/A,,Clear,300,2013-03-12 23:15:00
7:55 PM,59.0,41.0,51,29.94,10.0,WNW,4.6,-,N/A,,Clear,300,2013-03-12 23:55:00
8:15 PM,59.0,41.0,51,29.95,10.0,WNW,5.8,-,N/A,,Clear,300,2013-03-13 00:15:00
8:35 PM,59.0,39.2,48,29.95,10.0,West,4.6,-,N/A,,Clear,280,2013-03-13 00:35:00
8:55 PM,55.4,41.0,58,29.96,10.0,WNW,6.9,-,N/A,,Clear,300,2013-03-13 00:55:00
9:15 PM,55.4,41.0,58,29.97,10.0,WNW,5.8,-,N/A,,Clear,300,2013-03-13 01:15:00
9:55 PM,59.0,37.4,45,29.98,10.0,WNW,10.4,-,N/A,,Clear,300,2013-03-13 01:55:00
10:15 PM,59.0,37.4,45,29.99,10.0,WNW,9.2,-,N/A,,Clear,300,2013-03-13 02:15:00
10:35 PM,57.2,37.4,48,30.00,10.0,NW,9.2,-,N/A,,Clear,310,2013-03-13 02:35:00
10:55 PM,55.4,37.4,51,30.00,10.0,WNW,9.2,-,N/A,,Clear,300,2013-03-13 02:55:00
11:15 PM,55.4,35.6,47,30.01,10.0,NW,9.2,-,N/A,,Clear,310,2013-03-13 03:15:00
11:35 PM,55.4,33.8,44,30.02,10.0,NW,11.5,17.3,N/A,,Clear,310,2013-03-13 03:35:00
11:55 PM,55.4,33.8,44,30.03,10.0,NW,9.2,-,N/A,,Clear,310,2013-03-13 03:55:00